Agana Heights, GU

4:40 PM ChST on May 28, 2015 (GMT +1000)
Maite | | Change Station
CLOSE
Current Station
Personal Weather Station
Location: Maite, GU
Elevation: 140 ft
Nearby Weather Stations

Elev 140 ft 13.48 °N, 144.76 °E | Updated 2 seconds ago

Rain
Rain
82.5 °F
Feels Like 92 °F
N
8.0
Wind Variable Wind from ESE
Gusts 13.0 mph

Today
High -- | Low -- °F
--% Chance of Precip.
Yesterday
High -- | Low -- °F
Precip. -- in
5:53 AM 6:43 PM
Waxing Gibbous, 73% visible
Pressure 29.80 in
Visibility 10.0 miles
Clouds Few 1700 ft
Scattered Clouds 2300 ft
Scattered Clouds 3100 ft
Heat Index 92 °F
Dew Point 78 °F
Humidity 87%
Rainfall 0.29 in
Snow Depth Not available.
UV 2.2 out of 12
Pollen Not available.
Air Quality Not available.
Flu Activity Regional
SPECI PGUM 280613Z 10009KT 10SM FEW017 SCT023 SCT031 28/25 A2980 RMK AO2

More Conditions Fewer Conditions

Pressure 29.80 in
Visibility 10.0 miles
Clouds Few 1700 ft
Scattered Clouds 2300 ft
Scattered Clouds 3100 ft
Heat Index 92 °F
Dew Point 78 °F
Humidity 87%
Rainfall 0.29 in
Snow Depth Not available.
UV 2.2 out of 12
Pollen Not available.
Air Quality Not available.
Flu Activity Regional
SPECI PGUM 280613Z 10009KT 10SM FEW017 SCT023 SCT031 28/25 A2980 RMK AO2

More Conditions Fewer Conditions

10-Day Weather Forecast

Almanac

Astronomy

May. 28, 2015 Rise Set
Actual Time
Civil Twilight
Nautical Twilight
Astronomical Twilight
Moon
Length of Visible Light
Length of Day
Tomorrow will be .
, % of the Moon is Illuminated

Today's Extremes

State Highs State Lows

Community

WunderPhotos

Upload Photos

1,824,931 photos uploaded!

WunderBlogs® & News

Nearby

Air Quality

  Air Quality AQ Index Pollutant
Not available.

Snow Depth

Station Depth Elevation

Earthquake Activity

City Distance Mag. Time & Date
Minimum magnitude displayed is 2.5.

Coastal Water Temperatures

Place Temperature

Stations

Nearby Weather Stations

Station Location Temp. Windchill Dew Point Humidity Wind Precip. Elev Updated Type